TimeEDT,TemperatureF,Dew PointF,Humidity,Sea Level PressureIn,VisibilityMPH,Wind Direction,Wind SpeedMPH,Gust SpeedMPH,PrecipitationIn,Events,Conditions,WindDirDegrees,DateUTC
12:15 AM,58.3,53.2,83,30.07,7.0,ENE,3.5,-,N/A,,Overcast,60,2012-10-27 04:15:00
12:35 AM,58.1,53.2,84,30.06,7.0,ENE,3.5,-,N/A,,Overcast,60,2012-10-27 04:35:00
12:55 AM,57.7,53.1,84,30.06,7.0,ENE,3.5,-,N/A,,Overcast,60,2012-10-27 04:55:00
1:15 AM,58.1,52.9,83,30.05,7.0,East,4.6,-,N/A,,Overcast,100,2012-10-27 05:15:00
1:35 AM,57.4,52.3,83,30.04,7.0,Calm,Calm,-,N/A,,Scattered Clouds,0,2012-10-27 05:35:00
1:55 AM,57.4,52.7,84,30.04,7.0,Calm,Calm,-,N/A,,Scattered Clouds,0,2012-10-27 05:55:00
2:15 AM,57.4,52.9,85,30.03,5.0,East,4.6,-,N/A,,Overcast,100,2012-10-27 06:15:00
2:35 AM,57.9,53.1,84,30.03,5.0,Calm,Calm,-,N/A,,Haze,0,2012-10-27 06:35:00
2:55 AM,58.5,53.2,83,30.03,5.0,Calm,Calm,-,N/A,,Haze,0,2012-10-27 06:55:00
3:15 AM,57.2,52.9,85,30.03,5.0,North,4.6,-,N/A,,Overcast,10,2012-10-27 07:15:00
3:55 AM,57.7,53.6,86,30.02,5.0,Calm,Calm,-,N/A,,Overcast,0,2012-10-27 07:55:00
4:15 AM,57.4,53.6,87,30.01,4.0,NE,3.5,-,N/A,,Overcast,40,2012-10-27 08:15:00
4:35 AM,57.6,53.8,87,30.01,4.0,NNE,3.5,-,N/A,,Overcast,30,2012-10-27 08:35:00
4:55 AM,57.2,53.8,88,30.00,4.0,NE,3.5,-,N/A,,Overcast,50,2012-10-27 08:55:00
5:15 AM,57.4,54.1,89,30.00,4.0,East,3.5,-,N/A,,Overcast,90,2012-10-27 09:15:00
5:35 AM,56.7,53.6,89,30.00,4.0,NNE,3.5,-,N/A,,Overcast,20,2012-10-27 09:35:00
5:45 AM,57.2,53.6,88,29.99,4.0,ENE,4.6,-,N/A,,Overcast,70,2012-10-27 09:45:00
7:53 AM,57.2,53.6,88,30.00,4.0,ESE,6.9,-,N/A,,Overcast,120,2012-10-27 11:53:00
8:53 AM,59.0,53.6,82,30.01,4.0,ESE,5.8,-,N/A,,Overcast,120,2012-10-27 12:53:00
9:53 AM,59.0,53.6,82,30.01,5.0,South,3.5,-,N/A,,Haze,170,2012-10-27 13:53:00
10:53 AM,59.0,51.8,77,30.00,7.0,SSE,6.9,-,N/A,,Overcast,160,2012-10-27 14:53:00
11:53 AM,59.0,51.8,77,30.00,7.0,South,6.9,-,N/A,,Overcast,190,2012-10-27 15:53:00
12:53 PM,59.0,51.8,77,29.98,7.0,South,8.1,-,N/A,,Overcast,190,2012-10-27 16:53:00
1:53 PM,59.0,51.8,77,29.95,7.0,South,5.8,-,N/A,,Overcast,180,2012-10-27 17:53:00
2:53 PM,59.0,51.8,77,29.95,7.0,Calm,Calm,-,N/A,,Overcast,0,2012-10-27 18:53:00
3:53 PM,59.0,51.8,77,29.94,7.0,Variable,4.6,-,N/A,,Overcast,0,2012-10-27 19:53:00
4:53 PM,59.0,51.8,77,29.94,7.0,Calm,Calm,-,N/A,,Overcast,0,2012-10-27 20:53:00
5:53 PM,57.2,51.8,82,29.94,8.0,SE,3.5,-,N/A,,Overcast,140,2012-10-27 21:53:00
6:53 PM,57.2,51.8,82,29.95,8.0,Calm,Calm,-,N/A,,Overcast,0,2012-10-27 22:53:00
7:53 PM,57.2,51.8,82,29.95,8.0,Calm,Calm,-,N/A,,Mostly Cloudy,0,2012-10-27 23:53:00
9:15 PM,56.5,52.0,85,29.94,7.0,NE,3.5,-,N/A,,Overcast,50,2012-10-28 01:15:00
9:35 PM,56.3,51.8,85,29.94,7.0,Calm,Calm,-,N/A,,Overcast,0,2012-10-28 01:35:00
9:55 PM,57.0,51.8,83,29.94,10.0,NNE,3.5,-,N/A,,Overcast,30,2012-10-28 01:55:00
10:15 PM,56.5,51.8,84,29.94,10.0,Calm,Calm,-,N/A,,Overcast,0,2012-10-28 02:15:00
10:35 PM,56.3,52.0,85,29.94,7.0,Calm,Calm,-,N/A,,Overcast,0,2012-10-28 02:35:00
10:55 PM,56.3,51.8,85,29.94,10.0,Calm,Calm,-,N/A,,Overcast,0,2012-10-28 02:55:00
11:15 PM,56.3,51.6,84,29.93,10.0,Calm,Calm,-,N/A,,Mostly Cloudy,0,2012-10-28 03:15:00
11:35 PM,55.0,51.6,88,29.93,7.0,Calm,Calm,-,N/A,,Mostly Cloudy,0,2012-10-28 03:35:00
11:55 PM,55.6,52.3,89,29.93,7.0,Calm,Calm,-,N/A,,Overcast,0,2012-10-28 03:55:00